Weather History for Wakefield, VA

Change the Weather History Date:

Friday, December 2, 2011

  Actual Average (KJGG) Record (KJGG)
Temperature  
Mean Temperature 43 °F -  
Max Temperature 60 °F 56 °F 72 °F (1970)
Min Temperature 26 °F 34 °F 20 °F (1965)
Degree Days  
Heating Degree Days 22    
Moisture  
Dew Point 29 °F    
Average Humidity 73    
Maximum Humidity 96    
Minimum Humidity 29    
Precipitation  
Precipitation 0.00 in - - ()
Sea Level Pressure  
Sea Level Pressure 30.40 in    
Wind  
Wind Speed 1 mph (SSW)    
Max Wind Speed 7 mph    
Max Gust Speed -    
Visibility 8 miles    
Events      
Averages and records for this station are not official NWS values.
T = Trace of Precipitation, MM = Missing Value Source: NWS Daily Summary

Daily Weather History Graph

Daily Weather History Graph

Search for Another Location

Airport:

Trip Planner

Search our weather history database for the weather conditions in past years. The results will help you decide how hot, cold, wet, or windy it might be!

Date:

Astronomy

Dec. 02, 2011 Rise Set
Actual Time 7:03 AM EST 4:51 PM EST
Civil Twilight 6:34 AM EST 5:19 PM EST
Nautical Twilight 6:02 AM EST 5:52 PM EST
Astronomical Twilight 5:31 AM EST 6:23 PM EST
Moon 12:20 PM EST (12/2) No Moon Set
Length of Visible Light 10h 45m
Length of Day
9h 48m
First Quarter, 53% of the Moon is Illuminated
Dec 2
First Quarter
Dec 10
Full
Dec 17
Last Quarter
Dec 24
New
Jan 1
First Quarter

Hourly Weather History & Observations

Time (EST) Temp. Windchill Dew Point Humidity Pressure Visibility Wind Dir Wind Speed Gust Speed Precip Events Conditions
12:54 AM 30.0 °F - 26.1 °F 85% 30.36 in 8.0 mi Calm Calm - N/A   Clear
1:54 AM 28.9 °F - 26.1 °F 89% 30.36 in 5.0 mi Calm Calm - N/A   Clear
2:54 AM 28.9 °F - 26.1 °F 89% 30.37 in 6.0 mi Calm Calm - N/A   Clear
3:54 AM 28.0 °F - 25.0 °F 88% 30.37 in 6.0 mi Calm Calm - N/A   Clear
4:54 AM 28.0 °F - 24.1 °F 85% 30.37 in 6.0 mi Calm Calm - N/A   Clear
5:54 AM 28.0 °F - 24.1 °F 85% 30.38 in 2.5 mi Calm Calm - N/A   Clear
6:04 AM 26.6 °F - 24.8 °F 93% 30.37 in 3.0 mi Calm Calm - N/A   Clear
6:54 AM 28.0 °F - 23.0 °F 81% 30.38 in 7.0 mi Calm Calm - N/A   Clear
7:21 AM 28.4 °F - 24.8 °F 86% 30.38 in 1.8 mi Calm Calm - N/A   Clear
7:29 AM 28.4 °F - 24.8 °F 86% 30.39 in 3.0 mi Calm Calm - N/A   Clear
7:45 AM 28.4 °F - 26.6 °F 93% 30.39 in 2.5 mi Calm Calm - N/A   Clear
7:54 AM 28.9 °F - 28.0 °F 96% 30.40 in 5.0 mi Calm Calm - N/A   Clear
8:54 AM 37.9 °F 35.5 °F 32.0 °F 79% 30.41 in 5.0 mi South 3.5 mph - N/A   Haze
9:54 AM 46.9 °F - 30.0 °F 52% 30.42 in 10.0 mi SW 4.6 mph - N/A   Clear
10:54 AM 53.1 °F - 28.9 °F 40% 30.40 in 10.0 mi SW 4.6 mph - N/A   Clear
11:54 AM 55.9 °F - 24.1 °F 29% 30.37 in 10.0 mi SSW 6.9 mph - N/A   Clear
12:54 PM 57.9 °F - 27.0 °F 31% 30.35 in 10.0 mi WSW 6.9 mph - N/A   Clear
1:54 PM 60.1 °F - 28.9 °F 31% 30.34 in 10.0 mi South 5.8 mph - N/A   Clear
2:54 PM 60.1 °F - 30.0 °F 32% 30.34 in 10.0 mi WSW 5.8 mph - N/A   Clear
3:54 PM 59.0 °F - 30.9 °F 35% 30.35 in 10.0 mi SSW 4.6 mph - N/A   Clear
4:54 PM 50.0 °F - 37.9 °F 63% 30.38 in 10.0 mi Calm Calm - N/A   Clear
5:54 PM 43.0 °F - 37.0 °F 80% 30.39 in 10.0 mi Calm Calm - N/A   Clear
6:54 PM 41.0 °F - 36.0 °F 82% 30.41 in 10.0 mi Calm Calm - N/A   Clear
7:54 PM 37.0 °F - 34.0 °F 89% 30.44 in 10.0 mi Calm Calm - N/A   Clear
8:54 PM 36.0 °F - 33.1 °F 89% 30.46 in 10.0 mi Calm Calm - N/A   Clear
9:54 PM 35.1 °F - 32.0 °F 89% 30.48 in 10.0 mi Calm Calm - N/A   Clear
10:54 PM 34.0 °F - 30.0 °F 85% 30.50 in 10.0 mi Calm Calm - N/A   Clear
11:54 PM 33.1 °F 30.0 °F 28.9 °F 85% 30.51 in 10.0 mi NNE 3.5 mph - N/A   Clear